THORAD DELTA 1 DEB, 8165

Orbit data source: Space-Track

THORAD DELTA 1 DEB, 8165 is space debris in SSO originally from a launch on Fri, 15 Nov 1974 UTC launched from the Air Force Western Test Range (AFWTR). Debris objects in space refer to the collection of defunct objects orbiting the Earth. Examples of debris include non-operational satellites, rocket bodies, and fragments generated from explosions, collisions, or faulty payload assembly.

Loading next visibility...
Identifier
8165, 1974-089AF
Orbit
SSO
Country
Flag of USUS
Related business
Manufacturer
Unknown
Mission
Spacecraft
Bus & Motor
Unknown
Mass
Unknown
Launch date (UTC)
1974-11-15 (51 years ago)
Launch vehicle
Unknown
Launch site
Air Force Western Test Range (AFWTR)
Object type
Payload
Rocket body
Debris
Shape & HBR
Unknown
Radar Cross Section
Small (<0.1 m²)

Expand to show TLE details & history
Last TLE update: 22 hours ago

TLE from 22 hours ago
0 THORAD DELTA 1 DEB
1 08165U 74089AF  25242.36631216  .00000021  00000-0  42370-3 0  9993
2 08165 101.6716 187.4624 0018729  77.2736  43.6818 12.50171805316421
Epoch: 2025-08-30T08:47Z
TLE epoch observation values (Epoch: 2025-08-30T08:47:29.37Z)
Latitude
57.07866°
Longitude
-84.7007°
Altitude
1,462.54 km
Speed
7.141 km/s
True Right ascension
01h 43m 53s
True Declination
56° 56' 09"
Sunlit
Object was in daylight at epoch
Visualization orbit readout
Latitude
Unknown
Longitude
Unknown
Altitude
Unknown
Speed
Unknown
Apparent Right ascension
Unknown
Apparent Declination
Unknown
Sunlit
N/A
Visualization observer readout
Local Sidereal Time
22:52:49
Azimuth
Unknown
Elevation
Unknown
Doppler factor
Unknown
Orbital elements
Apogee altitude
1,476.001 km
Perigee altitude
1,446.636 km
Semi-major axis
7,839.455 km
Eccentricity
0.00187
Inclination
101.6716°
RAAN
187.4624°
Arg. of periapsis
77.2736°
True anomaly
43.83028°
Mean anomaly
43.6818°
Eccentric anomaly
43.75601°
Mean motion
3.1269 °/min
Orbital period
115.13 mins
BSTAR
0.0004237
Loading maneuver chart data...
Computing Atmospheric mass density...
Loading historical data...
Loading historical data...
Loading historical data...
Loading historical data...
Loading historical data...
Loading historical data...
Loading historical data...

Documentation

Showing up to 5 results
|